This is the latest recevied weather packets stored in our database for station/object N3AVN. If no packets are shown the sender has not sent any weather packets the latest 10 day(s).
| Time | Temp. | Humidity | Pressure | Rain* | Wind** | Luminosity | Snow |
|---|---|---|---|---|---|---|---|
| 1777846172 | 13.33° C | 36% | 1007.6 hPa | 0 mm | - | 38 W/m² | - |
| 1777845868 | 13.33° C | 34% | 1007.5 hPa | 0 mm | - | 38 W/m² | - |
| 1777845565 | 13.33° C | 35% | 1007.6 hPa | 0 mm | - | 114 W/m² | - |
| 1777845262 | 12.78° C | 36% | 1007.8 hPa | 0 mm | - | 73 W/m² | - |
| 1777844960 | 13.33° C | 36% | 1007.8 hPa | 0 mm | - | 113 W/m² | - |
| 1777844657 | 13.33° C | 37% | 1007.6 hPa | 0 mm | - | 84 W/m² | - |
| 1777844355 | 13.33° C | 37% | 1007.6 hPa | 0 mm | - | 141 W/m² | - |
| 1777844052 | 13.33° C | 36% | 1007.7 hPa | 0 mm | - | 126 W/m² | - |
| 1777843749 | 13.33° C | 36% | 1007.6 hPa | 0 mm | - | 50 W/m² | - |
| 1777843446 | 12.78° C | 36% | 1007.6 hPa | 0 mm | - | 66 W/m² | - |
| 1777843144 | 12.78° C | 36% | 1007.6 hPa | 0 mm | - | 203 W/m² | - |
| 1777842840 | 12.22° C | 37% | 1007.7 hPa | 0 mm | - | 60 W/m² | - |
| 1777842535 | 12.78° C | 38% | 1007.5 hPa | 0 mm | - | 103 W/m² | - |
| 1777842233 | 13.33° C | 36% | 1007.7 hPa | 0 mm | - | 389 W/m² | - |
| 1777841933 | 13.33° C | 36% | 1007.6 hPa | 0 mm | - | 369 W/m² | - |
| 1777841630 | 13.89° C | 35% | 1007.6 hPa | 0 mm | - | 395 W/m² | - |
| 1777841326 | 13.89° C | 37% | 1007.5 hPa | 0 mm | - | 412 W/m² | - |
| 1777841024 | 13.33° C | 38% | 1007.8 hPa | 0 mm | - | 148 W/m² | - |
| 1777840721 | 13.33° C | 38% | 1007.6 hPa | 0 mm | - | 345 W/m² | - |
| 1777840418 | 13.89° C | 36% | 1007.5 hPa | 0 mm | - | 289 W/m² | - |
| 1777840115 | 13.89° C | 36% | 1007.7 hPa | 0 mm | - | 455 W/m² | - |
| 1777839813 | 13.33° C | 37% | 1007.5 hPa | 0 mm | - | 524 W/m² | - |
| 1777839512 | 12.78° C | 35% | 1007.7 hPa | 0 mm | - | 369 W/m² | - |
| 1777839208 | 13.33° C | 37% | 1007.8 hPa | 0 mm | - | 400 W/m² | - |
| 1777838906 | 13.89° C | 34% | 1007.5 hPa | 0 mm | - | 519 W/m² | - |
* Rain latest hour (hover to see other rain measurements)
** Current wind speed in m/s (hover to see current wind gust speed)